Skip Page Navigation
NASA JPL Caltech
NASA Logo - Jet Propulsion Laboratory + View the NASA Portal
+ Near-Earth Object (NEO) Program
Search JPL
JPL Home Earth Solar System Stars & Galaxies Technology
JPL Solar System Dynamics
BODIES ORBITS EPHEMERIDES TOOLS PHYSICAL DATA DISCOVERY FAQ SITE MAP
JPL Small-Body Database Browser
Search: [ help ]  
185164 Ingeburgherz (2006 SL218)
Classification: Main-belt Asteroid          SPK-ID: 2185164
Ephemeris | Orbit Diagram | Orbital Elements | Physical Parameters | Discovery Circumstances ]

[ show orbit diagram ]
Orbital Elements at Epoch 2456400.5 (2013-Apr-18.0) TDB
Reference: MPO257835 (heliocentric ecliptic J2000)
 Element Value Uncertainty (1-sigma)   Units 
e 0.1702018 n/a  
a 2.7655398 n/a AU
q 2.2948399 n/a AU
i 4.62019 n/a deg
node 202.43661 n/a deg
peri 130.14768 n/a deg
M 188.07490 n/a deg
tp 2457202.7414499
(2015-Jun-29.24144990)
n/a JED
period 1679.8415238
4.60
n/a
n/a
d
yr
n 0.21430593 n/a deg/d
Q 3.2362397 n/a AU
  Orbit Determination Parameters
   # obs. used (total)      113  
   first obs. used      1992-??-??  
   last obs. used      2013-03-04  
   # oppositions      10  
   planetary ephem.      DE403  
   condition code      0  
   fit RMS      0.37  
   data source      MPC:mpu  
   producer      MPCLINUX  

Additional Information
 T_jup = 3.314 

Ephemeris | Orbit Diagram | Orbital Elements | Physical Parameters | Discovery Circumstances ]

Physical Parameter Table
Parameter Symbol Value Units Sigma Reference Notes
absolute magnitude H 16.7 mag n/a MPO257835  

185164 Ingeburgherz           Discovered 2006 Sept. 27 at the Observatorio de La Sagra.
Ingeburg Herz (b. 1920) is one of the most successful German entrepreneurs. Her generous Max and Ingeburg Herz Foundation supports young scientists and research within the Max Planck Society, in the fields of skin and hair follicle morphogenesis and molecular biology of the ageing skin.
NOTE: some special characters may not display properly (any characters within {} are an attempt to place the proper accent above a character)
Reference: 20100130/MPCPages.arcLast Updated: 2013-03-29

Alternate Designations
 2006 SL218 = 2001 RO32 
Ephemeris | Orbit Diagram | Orbital Elements | Physical Parameters | Discovery Circumstances ]
ABOUT SSD CREDITS/AWARDS PRIVACY/COPYRIGHT GLOSSARY LINKS
FirstGov 2013-May-22 16:38 UT
(server date/time)  
NASA Home Page
Site Manager:   Donald K. Yeomans
Webmaster  Alan B. Chamberlin